Change the Weather History Date:

Thursday, October 16, 2014

  Actual Average Record
Temperature  
Mean Temperature 63 °F 54 °F  
Max Temperature 83 °F 68 °F 93 °F (1908)
Min Temperature 43 °F 40 °F 24 °F (1943)
Degree Days  
Heating Degree Days 2    
Growing Degree Days 13 (Base 50)    
Moisture  
Dew Point 39 °F    
Average Humidity 48    
Maximum Humidity 85    
Minimum Humidity 18    
Precipitation  
Precipitation 0.00 in 0.06 in 0.02 in (1998)
Month to date precipitation 0.75 0.86  
Year to date precipitation 21.35 20.62  
Sea Level Pressure  
Sea Level Pressure 29.82 in    
Wind  
Wind Speed 9 mph (NW)    
Max Wind Speed 23 mph    
Max Gust Speed 30 mph    
Visibility 10 miles    
Events      
T = Trace of Precipitation, MM = Missing Value Source: NWS Daily Summary

Daily Weather History Graph

Daily Weather History Graph

Search for Another Location

Airport or City:

Trip Planner

Search our weather history database for the weather conditions in past years. The results will help you decide how hot, cold, wet, or windy it might be!

Date:

Astronomy

Oct. 16, 2014 Rise Set
Actual Time 7:50 AM CDT 6:58 PM CDT
Civil Twilight 7:23 AM CDT 7:25 PM CDT
Nautical Twilight 6:52 AM CDT 7:56 PM CDT
Astronomical Twilight 6:20 AM CDT 8:28 PM CDT
Moon 1:04 AM CDT (10/16) 3:09 PM CDT (10/16)
Length of Visible Light 12h 02m
Length of Day
11h 08m
Last Quarter, 41% of the Moon is Illuminated
Oct 16
Last Quarter
Oct 23
New
Oct 30
First Quarter
Nov 6
Full
Nov 14
Last Quarter

Hourly Weather History & Observations

Time (CDT) Temp. Windchill Dew Point Humidity Pressure Visibility Wind Dir Wind Speed Gust Speed Precip Events Conditions
12:53 AM 57.9 °F - 45.0 °F 62% 29.74 in 10.0 mi South 6.9 mph - N/A   Clear
1:53 AM 57.9 °F - 44.1 °F 60% 29.71 in 10.0 mi South 4.6 mph - N/A   Clear
2:53 AM 57.0 °F - 44.1 °F 62% 29.69 in 10.0 mi South 8.1 mph - N/A   Clear
3:53 AM 55.0 °F - 44.1 °F 67% 29.69 in 10.0 mi SW 6.9 mph - N/A   Clear
4:53 AM 52.0 °F - 43.0 °F 71% 29.68 in 10.0 mi SSW 3.5 mph - N/A   Clear
5:53 AM 46.0 °F 43.1 °F 41.0 °F 83% 29.73 in 10.0 mi WNW 5.8 mph - N/A   Clear
6:53 AM 48.0 °F - 42.1 °F 80% 29.75 in 10.0 mi WNW 8.1 mph - N/A   Clear
7:53 AM 44.1 °F 40.8 °F 39.9 °F 85% 29.78 in 10.0 mi WSW 5.8 mph - N/A   Clear
8:53 AM 51.1 °F - 43.0 °F 74% 29.79 in 10.0 mi WNW 6.9 mph - N/A   Clear
9:53 AM 64.0 °F - 43.0 °F 46% 29.81 in 10.0 mi NNW 10.4 mph - N/A   Clear
10:53 AM 70.0 °F - 39.0 °F 32% 29.83 in 10.0 mi North 23.0 mph - N/A   Clear
11:53 AM 77.0 °F - 37.0 °F 24% 29.83 in 10.0 mi North 23.0 mph 29.9 mph N/A   Clear
12:53 PM 79.0 °F - 39.0 °F 24% 29.84 in 10.0 mi North 17.3 mph 25.3 mph N/A   Clear
1:53 PM 80.1 °F - 37.0 °F 21% 29.83 in 10.0 mi North 17.3 mph - N/A   Clear
2:53 PM 82.0 °F - 37.0 °F 20% 29.82 in 10.0 mi NNE 13.8 mph - N/A   Clear
3:53 PM 82.0 °F - 34.0 °F 18% 29.82 in 10.0 mi North 17.3 mph - N/A   Clear
4:53 PM 81.0 °F - 34.0 °F 18% 29.83 in 10.0 mi North 16.1 mph - N/A   Clear
5:53 PM 78.1 °F - 32.0 °F 19% 29.86 in 10.0 mi North 12.7 mph - N/A   Clear
6:53 PM 66.9 °F - 35.1 °F 31% 29.88 in 10.0 mi North 9.2 mph - N/A   Clear
7:53 PM 57.0 °F - 36.0 °F 45% 29.92 in 10.0 mi North 8.1 mph - N/A   Clear
8:53 PM 52.0 °F - 37.0 °F 57% 29.93 in 10.0 mi NNW 8.1 mph - N/A   Clear
9:53 PM 52.0 °F - 35.1 °F 53% 29.93 in 10.0 mi NNW 9.2 mph - N/A   Clear
10:53 PM 53.1 °F - 35.1 °F 50% 29.94 in 10.0 mi NNW 10.4 mph - N/A   Clear
11:53 PM 51.1 °F - 33.1 °F 50% 29.95 in 10.0 mi NNW 9.2 mph - N/A   Clear